Lapse_Rate
7.7 7.8 8.2 8.0 7.5 8.9 9.1 9.0 9.0 9.0 9.0 8.2 8.1 8.0 7.9 7.2 6.9 6.4 6.9 7.0 7.0 7.1 7.1 7.1 7.0 6.9 6.8 6.8 6.6 6.4 6.4 6.3 6.2 6.2 6.2 6.1 6.0 6.0 6.0 5.9 5.8 5.8 5.8 5.9 6.0 6.2 6.1 6.1 6.1
7.8 7.8 8.2 7.9 8.8 8.5 9.2 9.1 8.9 9.2 8.6 8.1 7.9 8.1 8.1 6.9 6.8 7.1 7.1 7.0 7.1 7.1 7.0 7.1 7.0 6.9 6.9 6.8 6.7 6.5 6.5 6.4 6.3 6.2 6.2 6.2 6.2 6.1 6.1 6.2 6.1 6.0 6.0 6.0 6.0 6.1 6.1 6.1 6.1
8.0 7.9 8.1 9.3 9.6 9.4 9.3 8.9 9.0 8.7 8.5 8.4 8.0 7.8 7.4 6.9 7.0 6.9 7.0 6.9 7.1 7.0 7.0 6.9 6.8 6.7 6.7 6.7 6.6 6.5 6.4 6.4 6.4 6.4 6.4 6.2 6.2 6.2 6.2 6.2 6.1 6.2 6.1 6.0 6.0 6.0 6.0 6.0 6.0
8.0 8.0 8.5 9.3 9.6 9.2 9.4 9.1 8.3 8.8 8.6 8.3 8.4 7.7 7.3 7.0 6.3 6.9 6.7 6.1 6.6 6.7 6.8 6.7 6.7 6.7 6.8 6.9 6.8 6.6 6.5 6.5 6.3 6.4 6.3 6.2 6.2 6.2 6.2 6.3 6.3 6.3 6.3 6.3 6.3 6.2 6.2 6.1 6.0
7.9 8.2 9.4 9.6 9.6 9.5 9.4 8.6 8.5 9.1 8.6 8.3 8.3 6.9 7.3 6.9 6.7 6.6 6.3 5.4 5.5 6.5 6.8 6.8 6.6 6.8 6.9 6.9 6.7 6.6 6.7 6.5 6.4 6.4 6.3 6.2 6.2 6.2 6.3 6.4 6.4 6.4 6.2 6.3 6.4 6.4 6.3 6.1 6.2
7.7 8.5 9.5 9.8 9.6 9.5 9.3 8.9 8.6 8.7 8.7 8.1 8.2 7.3 7.0 6.9 6.7 6.5 5.6 5.3 5.4 6.8 6.9 6.9 6.8 6.9 7.0 7.0 6.9 6.8 6.7 6.5 6.3 6.3 6.4 6.3 6.3 6.2 6.3 6.3 6.4 6.4 6.3 6.3 6.3 6.1 6.1 6.2 6.1
7.6 9.5 9.5 9.6 9.6 9.6 9.0 8.7 8.2 8.1 7.8 8.1 8.1 6.9 6.9 7.0 6.9 6.7 6.4 6.4 5.6 6.8 6.9 6.9 6.9 6.8 6.9 6.8 6.9 6.7 6.6 6.5 6.5 6.4 6.3 6.2 6.2 6.2 6.3 6.3 6.4 6.4 6.4 6.4 6.3 6.3 6.2 6.2 6.1
7.4 8.6 9.6 9.6 9.6 9.4 8.8 8.5 8.7 7.7 6.9 7.3 7.2 7.2 6.4 6.9 6.5 6.6 6.7 6.7 6.2 6.5 6.5 6.6 6.6 6.6 6.7 6.7 6.6 6.5 6.5 6.5 6.4 6.3 6.4 6.2 6.3 6.3 6.2 6.3 6.3 6.4 6.5 6.5 6.5 6.4 6.3 6.3 6.2
7.3 7.8 9.5 9.6 9.6 8.5 8.3 8.5 8.3 7.0 7.0 7.2 7.2 7.2 7.2 6.9 6.3 5.7 5.6 6.0 6.2 5.5 5.6 5.5 6.0 6.5 6.5 6.7 6.6 6.6 6.6 6.6 6.5 6.4 6.4 6.3 6.3 6.4 6.2 6.3 6.3 6.4 6.4 6.5 6.7 6.7 6.4 6.3 6.2
7.3 8.1 9.6 9.7 9.6 7.8 7.3 7.8 8.6 7.8 6.7 6.1 6.8 6.9 6.3 6.0 6.1 6.1 5.9 5.8 5.8 6.3 6.4 5.9 6.2 6.4 6.4 6.4 6.5 6.4 6.5 6.7 6.6 6.4 6.4 6.3 6.3 6.3 6.3 6.5 6.5 6.4 6.4 6.4 6.6 6.6 6.5 6.3 5.8
7.6 8.4 9.6 9.5 8.4 7.4 6.8 7.4 7.2 6.6 6.3 6.2 6.3 6.0 6.0 6.0 5.9 6.2 6.1 6.0 5.9 6.4 6.4 6.5 6.6 6.6 6.5 6.4 6.3 6.4 6.4 6.5 6.5 6.3 6.3 6.2 6.2 6.2 6.2 6.4 6.6 6.6 6.7 6.5 6.5 6.5 6.4 6.0 5.9
7.6 8.1 9.6 8.4 7.2 6.8 6.7 6.9 6.8 5.9 6.7 6.8 7.0 7.1 7.4 7.3 7.1 7.4 7.5 7.1 6.4 6.3 6.7 6.5 6.7 6.8 6.8 6.8 6.6 6.4 6.3 6.3 6.2 6.3 6.3 6.3 6.3 6.3 6.3 6.3 6.5 6.6 6.6 6.7 6.5 5.9 5.7 6.3 6.4
7.7 8.4 8.8 6.5 5.8 6.3 6.7 6.7 7.3 6.8 7.3 7.4 7.4 7.4 7.5 7.5 7.4 7.6 7.6 7.4 7.2 7.1 7.0 7.2 7.1 7.2 7.0 6.9 6.8 6.7 6.6 6.5 6.4 6.3 6.3 6.4 6.6 6.7 6.6 6.6 6.6 6.6 6.6 6.6 6.6 6.1 5.8 6.2 5.9
7.7 8.1 8.7 5.8 5.7 6.2 6.6 6.2 6.6 6.1 6.9 7.2 7.5 7.5 7.6 7.8 7.9 7.8 7.8 7.8 7.6 7.3 7.3 7.4 7.4 7.3 7.3 7.4 7.2 7.1 7.0 6.9 6.8 6.8 6.8 6.8 6.7 6.7 6.8 6.8 6.9 6.8 6.8 6.8 6.8 6.7 6.7 6.6 6.4
7.8 7.3 7.2 6.4 6.0 6.3 7.0 6.8 6.4 6.1 6.3 7.0 7.5 7.7 7.9 7.9 8.0 8.0 8.1 8.0 8.0 7.8 7.6 7.5 7.2 7.2 7.2 7.3 7.3 7.3 7.3 7.4 7.3 7.1 7.1 7.1 7.0 7.0 7.0 6.9 7.0 6.9 6.9 6.9 6.9 6.8 6.8 6.8 6.8
7.8 7.6 7.3 7.0 6.9 6.6 7.2 5.8 6.9 6.6 6.7 7.2 7.3 7.8 7.9 8.1 8.2 8.1 8.2 8.2 8.2 8.3 8.3 8.2 8.0 7.9 7.7 7.6 7.6 7.6 7.5 7.5 7.3 7.2 7.3 7.3 7.2 7.2 7.2 7.3 7.2 7.2 7.1 7.1 7.0 6.9 6.9 6.7 6.7
7.9 8.1 8.2 6.8 7.3 7.6 7.6 5.7 6.7 7.2 7.3 7.4 7.4 7.6 7.9 8.1 8.3 8.3 8.4 8.3 8.3 8.3 8.3 8.4 8.5 8.5 8.4 8.2 8.1 7.8 7.9 7.6 7.5 7.4 7.2 7.4 7.5 7.5 7.5 7.4 7.3 7.3 7.2 7.2 7.2 7.2 7.1 7.0 6.9
9.0 8.6 9.6 9.1 6.9 7.1 7.3 5.1 6.6 7.1 7.0 7.2 7.5 7.8 7.9 8.1 8.2 8.2 8.3 8.2 8.2 8.3 8.3 8.3 8.5 8.5 8.4 8.4 8.3 8.3 8.3 8.3 8.1 7.9 7.4 7.7 7.8 7.7 7.9 7.9 7.8 7.6 7.3 7.3 7.2 7.2 7.1 7.0 6.9
9.7 9.7 9.7 7.7 6.1 6.7 6.1 5.3 5.8 6.6 6.4 6.7 7.1 7.4 7.5 7.7 7.9 8.0 7.9 7.9 8.1 8.2 8.2 8.3 8.2 8.3 8.1 8.2 8.3 8.1 8.1 8.0 8.1 7.7 7.8 7.7 7.8 7.6 7.3 7.4 7.3 7.6 7.6 7.2 7.1 7.1 7.0 7.2 7.2
8.7 8.9 9.2 6.6 6.2 6.8 5.7 5.3 5.0 5.5 5.7 6.4 6.8 7.1 7.2 7.4 7.6 7.7 7.7 7.9 7.9 7.9 7.8 7.8 7.9 7.8 7.4 8.2 8.2 7.7 7.7 8.3 8.2 8.3 8.4 8.0 7.8 7.7 7.7 7.5 7.5 7.2 7.3 7.3 6.5 6.7 6.6 7.0 7.0
8.1 8.6 9.0 7.7 6.5 6.7 6.1 5.5 4.9 4.7 5.6 6.4 6.7 7.2 7.3 7.5 7.6 7.7 7.8 7.8 7.7 7.6 7.4 7.3 7.3 7.4 7.4 7.7 7.8 7.8 7.6 7.7 8.0 8.2 8.0 7.8 7.8 7.7 8.2 7.8 7.8 7.4 7.2 7.1 6.8 6.5 6.9 7.3 7.4
8.6 8.5 9.2 7.7 6.8 7.4 6.8 9.0 5.5 4.9 4.6 5.4 6.3 6.9 7.3 7.3 7.3 7.3 7.2 7.2 7.1 7.0 7.1 7.1 7.1 7.1 7.1 7.1 7.1 7.1 7.1 7.5 7.7 7.7 7.7 7.7 7.9 7.8 7.7 7.6 7.7 7.6 7.5 7.4 7.1 6.8 7.4 7.9 7.8
8.6 9.7 8.9 8.1 7.4 8.8 7.6 8.0 8.2 5.3 5.1 4.6 5.6 6.5 6.7 6.9 6.9 6.9 6.7 6.6 6.5 6.5 6.6 6.7 6.9 7.0 7.1 7.1 7.1 7.0 6.9 7.0 7.0 7.2 7.2 7.1 7.2 7.3 7.3 7.4 7.4 7.3 7.1 7.1 6.9 7.2 7.5 7.4 7.6
9.2 9.2 9.6 8.7 7.8 8.8 9.5 8.7 7.7 6.5 6.4 4.8 5.4 6.2 6.4 6.6 6.6 6.5 6.5 6.4 6.4 6.4 6.5 6.6 6.6 6.7 6.7 6.8 6.8 6.8 6.9 7.0 7.0 7.1 7.1 7.2 7.1 7.1 7.1 7.2 7.3 7.2 7.2 7.3 7.4 7.2 7.2 7.0 6.8
8.3 8.7 9.6 9.4 9.5 9.4 9.6 9.4 8.8 6.9 6.5 5.5 5.4 6.0 6.2 6.2 6.2 6.2 6.1 6.2 6.3 6.2 6.3 6.4 6.5 6.6 6.8 6.9 7.0 7.1 7.2 7.2 7.2 7.3 7.3 7.3 7.4 7.3 7.2 7.2 7.3 7.4 7.4 7.3 7.3 7.3 7.4 7.5 7.4
8.8 9.4 9.6 9.4 9.7 10.1 9.5 9.5 7.5 7.0 7.0 7.0 6.9 6.6 6.3 6.1 6.0 6.0 6.1 6.0 6.1 6.4 6.5 6.6 6.7 6.8 6.8 6.8 6.8 6.8 6.8 6.9 7.0 7.1 7.2 7.3 7.3 7.4 7.5 7.5 7.6 7.6 7.5 7.3 7.3 7.3 7.4 7.3 7.4
9.3 9.1 9.5 9.4 9.5 9.7 9.2 7.3 5.8 6.4 6.5 6.0 5.9 6.0 6.0 6.1 6.1 6.1 6.2 6.2 6.4 6.5 6.6 6.6 6.7 6.7 6.8 6.7 6.7 6.8 6.8 6.8 6.9 6.9 6.9 6.9 6.9 6.9 7.0 7.1 7.2 7.3 7.4 7.3 7.2 7.3 7.2 7.2 7.2
8.2 9.3 9.3 9.4 9.5 9.4 9.6 8.3 7.4 5.8 4.7 4.5 4.6 4.9 5.7 5.9 6.1 6.2 6.1 6.1 6.2 6.2 6.3 6.5 6.6 6.6 6.5 6.4 6.3 6.2 6.1 6.1 6.1 6.1 6.3 6.4 6.6 6.8 6.8 6.9 6.8 6.8 6.9 6.9 7.0 7.1 7.0 7.0 7.0
9.3 8.9 9.1 9.2 9.2 9.4 9.0 7.6 6.3 5.9 5.3 4.6 4.3 4.9 5.7 5.7 5.8 5.9 6.0 6.1 6.1 6.1 6.2 6.3 6.2 5.9 5.9 5.8 5.7 5.6 5.7 5.6 5.6 5.6 5.6 5.6 5.7 5.8 5.9 6.1 6.2 6.2 6.3 6.3 6.6 6.7 6.8 7.0 7.0
8.6 8.8 9.0 9.4 9.4 9.3 9.4 6.9 5.7 5.3 4.9 4.3 4.8 5.4 5.8 5.7 5.7 5.7 5.9 5.8 5.9 5.7 5.7 5.8 5.7 5.7 5.8 5.7 5.6 5.6 5.6 5.7 5.6 5.6 5.6 5.5 5.4 5.3 5.3 5.4 5.6 5.7 5.7 5.7 5.8 5.9 6.1 6.3 6.6
Wind_Speed
12 16 10 8 8 3 10 10 0 9 10 8 6 13 10 18 15 7 9 8 19 19 21 19 18 15 13 13 12 12 12 12 11 12 12 12 12 12 12 11 10 11 11 11 11 11 10 9 9
14 12 10 8 7 8 7 7 12 12 11 7 5 6 11 16 14 11 12 9 18 18 19 17 18 14 12 11 11 11 11 11 11 10 10 11 11 10 9 9 9 9 9 9 9 8 8 7 8
16 13 11 10 1 10 7 11 4 10 7 3 11 7 12 10 12 7 15 14 19 16 19 18 17 14 10 10 9 9 8 9 10 10 9 8 8 8 7 7 6 6 6 6 6 6 6 7 8
9 10 8 13 13 6 6 7 3 6 9 2 5 16 13 13 9 15 14 16 15 16 19 19 18 15 10 10 10 9 7 7 7 6 6 6 5 5 5 4 4 3 3 4 5 5 6 7 8
9 9 12 5 12 7 6 8 4 6 5 10 11 23 18 15 16 15 14 12 17 14 22 17 19 14 10 9 9 8 8 6 6 4 4 3 3 3 3 2 2 3 4 5 5 6 7 8 9
10 9 13 6 12 6 8 5 5 4 12 5 20 21 15 15 15 14 12 12 18 12 19 16 17 17 10 9 8 8 6 5 4 4 3 3 2 1 1 2 3 4 5 5 6 8 9 10 11
14 12 17 4 8 11 5 1 2 15 28 13 19 23 17 15 13 14 13 12 16 14 15 13 13 13 11 8 7 6 7 6 5 3 2 1 2 2 2 4 4 4 6 6 7 8 9 12 13
12 13 19 6 6 20 20 11 7 23 14 15 13 17 14 12 12 13 13 12 12 14 14 14 14 13 13 12 9 7 6 5 4 4 4 4 6 8 8 9 12 7 7 7 9 10 12 15 17
8 12 13 10 4 17 11 9 10 24 20 23 21 20 16 15 14 13 13 13 9 7 5 11 12 9 8 17 13 10 9 7 7 8 10 8 11 13 12 14 10 10 9 10 13 14 16 20 23
14 12 18 7 11 19 16 11 17 18 23 21 19 17 15 14 11 12 11 10 12 9 9 7 5 6 5 3 13 11 13 12 12 11 10 11 11 8 7 1 10 13 14 15 20 19 21 23 20
16 17 10 6 16 16 15 21 22 19 19 22 18 18 14 14 15 15 14 12 12 8 6 7 4 0 7 5 5 8 9 9 9 8 8 9 10 8 10 11 14 15 21 14 17 17 19 20 8
14 19 11 19 14 20 19 21 23 20 19 19 19 19 18 18 17 15 15 15 19 18 12 4 8 2 4 10 4 3 4 5 6 9 9 10 8 9 9 9 9 7 10 10 8 12 7 7 12
12 13 9 17 17 19 19 19 17 18 17 18 18 18 16 15 15 14 13 13 13 14 14 16 9 6 3 3 6 5 4 6 8 6 9 10 9 7 9 9 9 10 11 10 8 9 6 8 12
14 15 12 19 15 16 19 15 15 15 15 16 17 17 16 16 14 13 14 14 14 14 14 15 15 15 16 7 5 7 6 8 6 9 9 7 10 9 8 7 8 9 12 12 11 8 7 8 11
9 8 6 14 11 18 23 15 14 11 12 14 15 15 15 15 15 15 14 14 14 13 14 15 15 17 12 10 10 7 8 8 7 8 8 9 11 10 10 8 9 10 12 13 12 10 10 9 10
16 15 15 13 18 15 6 11 9 7 9 11 11 12 14 15 15 14 14 14 14 14 15 14 13 15 13 11 10 12 6 7 7 9 10 8 10 12 11 9 9 13 11 11 9 9 9 9 9
14 16 21 9 13 12 14 16 9 8 8 9 9 10 11 12 14 13 14 14 14 14 14 15 15 17 15 13 12 9 15 8 16 13 9 16 10 11 11 9 10 12 9 10 9 9 9 9 9
17 19 19 17 9 11 9 14 12 9 9 8 8 9 9 11 13 12 13 13 13 13 14 14 13 16 14 10 11 8 10 11 14 14 16 20 17 20 21 10 9 11 10 11 10 9 9 9 10
10 15 15 16 10 12 13 14 13 11 10 9 8 8 9 10 10 11 11 12 12 13 14 15 15 15 13 10 11 7 10 8 10 15 19 18 23 21 18 12 10 14 13 11 10 9 10 11 11
10 16 9 11 8 5 14 13 11 10 8 8 9 8 8 8 10 11 12 12 13 13 14 15 16 16 13 10 7 7 6 3 5 12 15 19 18 20 15 13 13 14 13 16 12 9 10 11 11
15 18 14 12 9 7 14 11 12 12 11 10 8 9 9 8 9 10 11 12 12 13 13 14 13 14 13 14 9 9 7 8 8 9 9 15 14 14 13 16 14 12 11 10 13 14 14 11 11
18 17 13 15 16 11 23 7 17 16 13 10 9 7 8 8 9 9 10 11 12 12 11 13 13 14 13 14 12 13 10 9 9 10 10 11 14 16 13 6 8 8 8 12 12 11 14 14 12
16 12 15 16 19 20 23 12 18 20 16 13 9 8 8 8 8 10 10 10 11 11 10 11 12 12 13 13 13 11 12 10 10 10 13 11 12 17 17 18 18 10 5 9 13 13 14 11 12
9 13 15 15 16 17 15 15 14 18 16 15 10 8 6 7 9 9 8 9 10 10 10 11 12 13 13 12 13 12 13 12 11 13 12 12 11 11 16 20 20 19 12 11 10 14 15 13 14
18 13 9 11 14 16 20 19 8 15 16 16 13 9 7 6 7 8 9 9 9 11 11 10 11 11 11 12 12 12 13 13 12 13 12 14 11 11 13 17 15 14 18 17 14 15 15 14 14
14 19 13 14 16 18 24 18 12 16 14 13 11 9 7 6 7 7 8 8 9 10 10 11 10 10 11 11 12 12 13 11 10 12 11 10 11 11 18 16 20 20 22 19 16 14 14 16 14
14 17 20 25 24 16 9 8 8 13 13 12 11 9 7 7 6 7 8 7 8 8 9 10 11 10 11 11 10 10 11 13 12 13 13 12 14 13 17 20 15 17 18 18 18 15 17 16 16
17 15 13 15 18 22 12 16 10 19 15 12 10 9 7 5 6 6 6 7 8 8 8 9 10 10 11 11 11 11 12 13 14 13 15 15 15 16 16 18 17 17 16 16 15 14 18 19 16
11 17 17 16 16 12 14 3 7 17 17 14 11 8 6 5 5 5 6 6 7 8 9 10 10 11 11 12 12 12 13 14 14 14 14 15 16 15 17 17 17 18 16 17 17 17 18 18 18
9 15 16 9 16 19 19 5 8 12 13 12 12 7 6 5 5 5 6 6 7 8 9 10 10 11 12 12 11 11 13 13 14 14 16 15 16 17 16 17 16 16 17 18 19 20 16 18 18
Wind_Direction
240 229 250 262 243 274 58 94 227 131 118 53 74 17 51 39 9 89 114 150 121 125 129 140 134 138 138 133 132 131 129 125 123 122 121 118 113 109 106 103 99 92 87 80 75 67 60 56 52
295 285 255 268 250 156 87 22 78 58 84 95 72 274 60 62 50 90 123 144 122 129 140 137 133 134 137 133 131 131 129 127 119 125 125 121 120 112 105 101 93 84 76 72 67 59 46 37 30
269 270 278 258 342 28 59 108 22 93 111 100 124 47 32 358 51 69 101 138 115 131 119 120 121 121 129 127 128 128 129 133 128 134 130 127 118 111 102 92 84 78 74 68 56 47 28 17 8
289 261 239 247 59 90 33 36 26 167 119 100 348 92 77 29 50 96 130 119 134 107 124 122 123 120 137 139 136 136 138 132 131 134 128 129 117 104 99 93 84 64 45 46 37 24 9 356 346
242 264 267 250 97 62 78 133 271 44 89 70 40 76 77 78 90 111 114 137 108 132 111 132 122 126 140 143 143 146 150 152 145 144 144 133 117 105 89 60 28 11 359 3 5 351 350 337 329
273 250 262 231 86 85 80 103 133 213 86 124 102 82 91 102 100 117 122 107 113 122 119 132 135 137 145 152 155 151 153 153 169 165 161 150 135 107 38 339 328 331 329 335 336 334 330 319 314
259 266 261 349 71 92 39 178 112 56 42 50 88 96 97 99 109 116 104 112 108 109 121 137 140 137 138 141 146 157 162 180 181 183 187 193 241 218 242 271 275 287 295 309 312 312 307 301 295
256 270 267 244 195 58 26 77 28 89 30 52 70 102 111 114 121 121 114 120 129 132 139 141 165 160 166 156 160 171 173 187 193 207 224 235 240 228 225 235 232 238 264 283 284 284 282 278 275
235 266 243 210 180 73 52 56 91 86 71 61 63 85 107 128 137 127 127 127 107 94 95 126 149 140 179 138 158 176 185 197 213 215 216 231 244 200 206 215 157 201 238 251 256 256 260 261 260
235 233 241 82 58 85 58 8 102 85 85 85 89 101 118 128 129 123 114 116 125 113 132 98 57 83 114 142 153 195 182 199 206 211 194 219 242 262 314 125 202 217 230 242 244 244 245 252 259
214 245 253 94 70 83 89 50 81 80 71 50 76 78 79 77 59 64 55 71 78 95 129 122 91 12 300 183 178 195 201 197 204 229 244 240 273 252 236 234 223 217 216 239 220 233 240 240 310
231 234 278 73 88 105 92 80 76 74 71 70 71 72 67 57 52 51 44 29 28 33 28 114 99 98 332 332 197 231 262 217 239 205 207 238 253 241 259 277 293 281 244 255 270 261 279 317 271
213 216 223 97 101 91 85 85 90 80 84 83 80 73 73 69 63 51 51 48 35 35 18 11 32 48 326 259 279 260 263 227 245 235 228 247 255 254 269 275 278 288 293 285 272 272 288 300 279
195 250 177 121 122 113 95 91 104 94 93 83 78 77 70 62 52 53 45 37 38 26 18 13 18 11 358 330 296 300 265 275 244 266 260 240 254 267 270 269 264 268 272 278 281 278 286 304 291
190 147 157 130 144 137 115 87 93 94 93 90 88 84 73 63 53 47 44 40 29 34 21 14 8 8 357 347 342 281 273 292 277 267 253 255 269 268 268 279 284 280 280 279 274 269 261 259 265
201 188 185 178 171 166 246 115 108 106 107 93 90 87 81 68 55 47 42 41 35 30 24 20 18 12 2 360 335 324 301 297 296 295 291 274 264 261 272 274 271 273 275 271 266 267 271 269 272
208 203 209 150 210 185 216 130 127 126 115 104 93 85 78 72 63 47 44 42 35 33 27 23 18 12 5 3 347 310 7 354 9 341 320 343 299 284 273 278 281 283 273 268 268 263 261 267 266
201 226 214 177 157 201 146 121 141 138 130 112 100 87 75 70 60 55 45 42 42 35 33 26 23 18 9 10 359 0 18 356 14 12 9 11 6 3 356 292 268 278 278 269 261 271 283 290 287
276 217 213 112 128 137 142 148 146 147 142 129 111 95 85 72 66 61 51 46 41 40 36 28 26 23 14 18 9 15 355 349 359 355 1 7 359 355 356 344 340 357 318 265 286 288 275 269 270
255 255 104 128 158 192 154 147 147 153 131 123 118 102 90 83 67 54 50 45 43 37 33 28 25 22 21 4 5 5 349 309 6 352 354 8 354 347 349 354 337 343 340 338 317 297 281 273 265
235 236 168 192 171 181 161 163 166 155 146 131 116 107 93 73 68 59 53 46 41 40 34 30 27 21 26 6 12 8 2 351 359 347 351 353 339 345 347 359 341 339 340 327 327 323 311 285 277
239 217 210 183 184 199 200 219 181 170 160 153 137 108 94 82 76 63 57 46 44 42 41 35 29 22 22 20 15 8 3 0 350 350 354 330 344 339 339 357 345 343 331 324 321 320 315 319 290
250 210 224 176 216 249 184 256 162 172 175 162 139 122 105 93 75 64 56 51 42 44 43 42 34 29 26 24 18 8 10 353 350 347 338 340 348 338 338 345 343 335 321 310 305 308 320 313 308
254 250 206 189 223 243 222 211 159 183 180 149 142 123 103 85 77 67 56 54 43 36 37 44 29 31 25 23 21 17 9 355 349 356 344 349 333 338 344 344 332 327 323 320 313 305 302 300 299
239 223 199 216 226 239 239 209 55 128 153 156 149 137 118 98 72 57 44 40 40 32 28 28 27 30 24 24 22 20 13 6 351 356 350 336 343 341 338 336 328 326 320 313 310 305 299 291 284
215 223 229 207 224 233 213 203 150 131 123 129 136 134 123 95 78 59 51 32 31 32 27 23 20 21 20 20 14 23 17 10 4 359 352 346 339 333 332 334 323 319 316 314 313 305 300 296 292
234 231 235 269 285 278 158 92 114 141 148 152 144 137 115 90 75 60 59 31 30 24 30 23 14 14 20 12 8 11 5 13 5 359 358 357 347 339 342 336 330 325 318 313 311 304 303 297 290
251 266 249 232 259 268 228 181 114 173 163 156 154 134 115 101 84 66 48 35 20 14 19 23 10 9 12 9 8 6 4 359 359 0 1 357 351 347 345 342 336 330 329 322 312 301 299 300 298
206 234 251 279 279 277 277 73 118 164 159 162 137 127 122 103 77 63 46 43 15 8 14 18 6 4 7 6 0 5 5 355 358 353 355 355 348 349 346 341 336 336 331 326 321 310 302 287 285
279 290 295 274 262 249 269 89 94 128 129 140 133 132 105 75 54 45 53 32 16 10 9 11 360 3 4 359 354 4 358 356 348 352 350 351 350 345 343 343 338 332 330 327 319 314 308 298 297